Hourly Weather Madrid

Today, 22 June, Tuesday

Time Temperature Precipitation Wind Pressure Humidity
00:00 +17°C° 0 mm 2 mps 705 mmHg 60%
01:00 +16°C° 0 mm 2 mps 705 mmHg 62%
02:00 +16°C° 0 mm 2 mps 704 mmHg 65%
03:00 +15°C° 0 mm 2 mps 704 mmHg 67%
04:00 +15°C° 0 mm 2 mps 704 mmHg 67%
05:00 +15°C° 0 mm 1 mps 705 mmHg 66%
06:00 +16°C° 0 mm 1 mps 705 mmHg 65%
07:00 +18°C° 0 mm 1 mps 705 mmHg 60%
08:00 +19°C° 0 mm 1 mps 706 mmHg 54%
09:00 +21°C° 0 mm 1 mps 706 mmHg 48%
10:00 +22°C° 0 mm 1 mps 706 mmHg 45%
11:00 +23°C° 0 mm 1 mps 706 mmHg 41%
12:00 +23°C° 0 mm 1 mps 706 mmHg 37%
13:00 +23°C° 0 mm 1 mps 706 mmHg 38%
14:00 +23°C° 0 mm 2 mps 706 mmHg 39%
15:00 +23°C° 0 mm 2 mps 706 mmHg 40%
16:00 +21°C° 0.1 mm 3 mps 706 mmHg 42%
17:00 +21°C° 0.1 mm 3 mps 706 mmHg 45%
18:00 +20°C° 0.1 mm 4 mps 706 mmHg 48%
19:00 +19°C° 0.5 mm 4 mps 706 mmHg 54%
20:00 +18°C° 0.5 mm 4 mps 707 mmHg 61%
21:00 +17°C° 0.5 mm 4 mps 707 mmHg 67%
22:00 +17°C° 0.2 mm 3 mps 707 mmHg 68%
23:00 +16°C° 0.2 mm 3 mps 707 mmHg 68%

Tomorrow, 23 June, Wednesday

Time Temperature Precipitation Wind Pressure Humidity
00:00 +16°C° 0.2 mm 2 mps 707 mmHg 69%
01:00 +16°C° 0 mm 2 mps 707 mmHg 70%
02:00 +15°C° 0 mm 2 mps 707 mmHg 71%
03:00 +15°C° 0 mm 2 mps 707 mmHg 72%
04:00 +14°C° 0 mm 3 mps 707 mmHg 72%
05:00 +14°C° 0 mm 3 mps 707 mmHg 71%
06:00 +14°C° 0 mm 3 mps 707 mmHg 70%
07:00 +16°C° 0 mm 3 mps 707 mmHg 64%
08:00 +18°C° 0 mm 3 mps 708 mmHg 57%
09:00 +19°C° 0 mm 3 mps 708 mmHg 51%
10:00 +20°C° 0 mm 3 mps 708 mmHg 46%
11:00 +21°C° 0 mm 3 mps 708 mmHg 42%
12:00 +21°C° 0 mm 3 mps 708 mmHg 37%
13:00 +22°C° 0 mm 3 mps 708 mmHg 35%
14:00 +23°C° 0 mm 2 mps 708 mmHg 34%
15:00 +24°C° 0 mm 2 mps 708 mmHg 32%
16:00 +24°C° 0 mm 3 mps 708 mmHg 31%
17:00 +24°C° 0 mm 3 mps 708 mmHg 31%
18:00 +24°C° 0 mm 3 mps 708 mmHg 30%
19:00 +21°C° 0 mm 3 mps 708 mmHg 35%
20:00 +20°C° 0 mm 4 mps 709 mmHg 39%
21:00 +19°C° 0 mm 4 mps 709 mmHg 43%
22:00 +18°C° 0 mm 4 mps 709 mmHg 47%
23:00 +17°C° 0 mm 4 mps 709 mmHg 50%

Day after tomorrow, 24 June, Thursday

Time Temperature Precipitation Wind Pressure Humidity
00:00 +15°C° 0 mm 4 mps 709 mmHg 53%
01:00 +14°C° 0 mm 4 mps 709 mmHg 55%
02:00 +14°C° 0 mm 4 mps 709 mmHg 57%
03:00 +13°C° 0 mm 3 mps 709 mmHg 59%
04:00 +14°C° 0 mm 4 mps 709 mmHg 59%
05:00 +14°C° 0 mm 4 mps 709 mmHg 58%
06:00 +14°C° 0 mm 4 mps 709 mmHg 58%
07:00 +17°C° 0 mm 4 mps 710 mmHg 52%
08:00 +19°C° 0 mm 4 mps 710 mmHg 46%
09:00 +21°C° 0 mm 4 mps 710 mmHg 40%
10:00 +22°C° 0 mm 3 mps 710 mmHg 36%
11:00 +25°C° 0 mm 2 mps 710 mmHg 31%
12:00 +26°C° 0 mm 1 mps 710 mmHg 27%
13:00 +27°C° 0 mm 1 mps 710 mmHg 25%
14:00 +28°C° 0 mm 1 mps 710 mmHg 23%
15:00 +29°C° 0 mm 1 mps 709 mmHg 21%
16:00 +29°C° 0 mm 1 mps 709 mmHg 21%
17:00 +29°C° 0 mm 1 mps 709 mmHg 20%
18:00 +29°C° 0 mm 1 mps 709 mmHg 20%
19:00 +28°C° 0 mm 1 mps 709 mmHg 21%
20:00 +26°C° 0 mm 1 mps 709 mmHg 23%
21:00 +25°C° 0 mm 1 mps 709 mmHg 24%
22:00 +24°C° 0 mm 2 mps 709 mmHg 26%
23:00 +24°C° 0 mm 2 mps 709 mmHg 28%

25 June, Friday

Time Temperature Precipitation Wind Pressure Humidity
00:00 +22°C° 0 mm 3 mps 709 mmHg 30%
01:00 +21°C° 0 mm 3 mps 709 mmHg 37%
02:00 +20°C° 0 mm 3 mps 709 mmHg 44%
03:00 +19°C° 0 mm 3 mps 709 mmHg 51%
04:00 +19°C° 0 mm 3 mps 709 mmHg 54%
05:00 +19°C° 0 mm 3 mps 709 mmHg 56%
06:00 +19°C° 0 mm 3 mps 709 mmHg 58%
07:00 +21°C° 0 mm 3 mps 710 mmHg 55%
08:00 +24°C° 0 mm 3 mps 710 mmHg 51%
09:00 +25°C° 0 mm 3 mps 710 mmHg 47%
10:00 +27°C° 0 mm 2 mps 710 mmHg 42%
11:00 +29°C° 0 mm 2 mps 710 mmHg 37%
12:00 +30°C° 0 mm 1 mps 709 mmHg 32%
13:00 +31°C° 0 mm 2 mps 709 mmHg 29%
14:00 +32°C° 0 mm 2 mps 709 mmHg 26%
15:00 +34°C° 0 mm 2 mps 708 mmHg 23%
16:00 +34°C° 0 mm 2 mps 708 mmHg 22%
17:00 +34°C° 0 mm 2 mps 708 mmHg 22%
18:00 +33°C° 0 mm 1 mps 707 mmHg 22%
19:00 +32°C° 0 mm 1 mps 707 mmHg 24%
20:00 +30°C° 0 mm 1 mps 708 mmHg 27%
21:00 +29°C° 0 mm 1 mps 708 mmHg 30%
22:00 +28°C° 0 mm 2 mps 708 mmHg 34%
23:00 +27°C° 0 mm 3 mps 708 mmHg 39%

26 June, Saturday

Time Temperature Precipitation Wind Pressure Humidity
00:00 +25°C° 0 mm 3 mps 708 mmHg 44%
01:00 +25°C° 0 mm 3 mps 708 mmHg 46%
02:00 +24°C° 0 mm 3 mps 708 mmHg 49%
03:00 +22°C° 0 mm 3 mps 708 mmHg 52%
04:00 +22°C° 0 mm 3 mps 708 mmHg 52%
05:00 +22°C° 0 mm 3 mps 708 mmHg 53%
06:00 +22°C° 0 mm 3 mps 708 mmHg 54%
07:00 +25°C° 0 mm 3 mps 708 mmHg 49%
08:00 +26°C° 0 mm 3 mps 708 mmHg 44%
09:00 +28°C° 0 mm 2 mps 708 mmHg 40%
10:00 +29°C° 0 mm 2 mps 708 mmHg 36%
11:00 +31°C° 0 mm 2 mps 708 mmHg 32%
12:00 +34°C° 0 mm 2 mps 708 mmHg 27%
13:00 +35°C° 0 mm 3 mps 708 mmHg 25%
14:00 +36°C° 0 mm 4 mps 708 mmHg 22%
15:00 +37°C° 0 mm 4 mps 708 mmHg 19%
16:00 +36°C° 0 mm 5 mps 707 mmHg 18%
17:00 +36°C° 0 mm 5 mps 707 mmHg 18%
18:00 +36°C° 0 mm 5 mps 707 mmHg 17%
19:00 +34°C° 0 mm 4 mps 707 mmHg 19%
20:00 +33°C° 0 mm 4 mps 707 mmHg 21%
21:00 +30°C° 0 mm 3 mps 707 mmHg 23%
22:00 +29°C° 0 mm 3 mps 707 mmHg 25%
23:00 +28°C° 0 mm 3 mps 707 mmHg 27%

27 June, Sunday

Time Temperature Precipitation Wind Pressure Humidity
00:00 +27°C° 0 mm 3 mps 707 mmHg 29%
01:00 +27°C° 0 mm 2 mps 707 mmHg 30%
02:00 +26°C° 0 mm 2 mps 707 mmHg 32%
03:00 +25°C° 0 mm 1 mps 707 mmHg 34%
04:00 +25°C° 0 mm 1 mps 707 mmHg 35%
05:00 +25°C° 0 mm 1 mps 707 mmHg 36%
06:00 +25°C° 0 mm 1 mps 707 mmHg 36%
07:00 +27°C° 0 mm 2 mps 708 mmHg 32%
08:00 +28°C° 0 mm 2 mps 708 mmHg 28%
09:00 +30°C° 0 mm 3 mps 708 mmHg 24%
10:00 +32°C° 0 mm 4 mps 708 mmHg 21%
11:00 +34°C° 0 mm 5 mps 708 mmHg 17%
12:00 +35°C° 0 mm 6 mps 708 mmHg 14%
13:00 +36°C° 0 mm 6 mps 708 mmHg 12%
14:00 +36°C° 0 mm 6 mps 708 mmHg 11%
15:00 +38°C° 0 mm 6 mps 708 mmHg 10%
16:00 +38°C° 0 mm 6 mps 707 mmHg 10%
17:00 +36°C° 0 mm 5 mps 707 mmHg 10%
18:00 +36°C° 0 mm 5 mps 707 mmHg 10%
19:00 +34°C° 0 mm 4 mps 707 mmHg 11%
20:00 +31°C° 0 mm 3 mps 707 mmHg 13%
21:00 +29°C° 0 mm 3 mps 707 mmHg 15%
22:00 +28°C° 0 mm 3 mps 707 mmHg 18%
23:00 +27°C° 0 mm 3 mps 707 mmHg 21%
Show more

We Need Your Consent

Meteoprog and our Service Providers may store and access personal data such as cookies, device identifiers or other similar technologies on your device and process such data to personalise content and ads, as well as provide social media features and to analyse the traffic.

  • Store and/or access information on your device

    Cookies, device identifiers or other information can be stored or accessed on your device for the purposes indicated above.

  • Personalised ads and content, ad and content measurement, audience insights, and products development

    Ads and content can be personalised based on a profile. More data can be added to better personalise ads and content. Ad and content performance can be measured. Insights about the audience who saw the ads and content can be derived. Such data can be used to develop or improve user’s experience, systems and software.

By clicking ‘I Agree’ you will allow the use of indicated cookies, device identifiers, web beacons or other similar technologies. Your settings can be changed in the browser on your device.

For certain purposes, legitimate interests may be relied on, rather than consent. You can read more about this in our Privacy and Cookie Policy.